Flag for Germany Weather past 2 weeks in Recklinghausen, North Rhine-Westphalia, Germany

Now
61 °F

Sunny.


Feels Like: 61 °F
Forecast: 60 / 70 °F
Wind: 2 mph from North

Location: Dortmund / Wickede

Current Time: Jul 24, 2014 at 7:19:00 AM

Latest Report: Jul 24, 2014 at 6:50 AM


Visibility: 10 mi

Pressure: 30.01 "Hg

Humidity: 83%

Dew point: 55 °F

Location of RecklinghausenLocation

Historic Weather in Recklinghausen — Graph

°F

Recklinghausen temperature yesterday

Maximum temperature yesterday: 81 °F (at 2:50 PM)
Minimum temperature yesterday: 63 °F (at 5:50 AM)
Average temperature yesterday: 75 °F

Past Weeks' High & Low Weather Summary

 TemperatureHumidityPressure
High90 °F (Jul 19, 1:20 PM)100% (Jul 10, 5:20 AM)30.18 "Hg (Jul 10, 5:20 AM)
Low54 °F (Jul 9, 6:50 AM)22% (Jul 19, 2:50 PM)29.65 "Hg (Jul 9, 2:50 PM)
Average70 °F67%29.95 "Hg
* Reported Jul 9 6:50 AM — Jul 24 6:20 AM, Recklinghausen, Weather by CustomWeather, © 2014

Note: Actual official high and low records may vary slightly from our data, if they occured in-between our weather recording intervals... More about our weather records

Advertising

Recklinghausen weather history for previous 24 hours

 ConditionsComfort  
Time TempWeatherWind HumidityBarometerVisibility
6:20 AM
Jul 24
59 °FClear.2 mph82%30.01 "Hg10 mi
5:50 AM59 °FClear.2 mph82%30.01 "Hg10 mi
5:20 AM59 °FClear.3 mph82%30.01 "Hg10 mi
10:50 PM
Jul 23
70 °FClear.5 mph60%30.04 "Hg10 mi
10:20 PM72 °FSunny.5 mph61%30.04 "Hg10 mi
9:50 PM73 °FSunny.5 mph57%30.04 "Hg10 mi
9:20 PM75 °FSunny.6 mph54%30.01 "Hg10 mi
8:50 PM77 °FPassing clouds.6 mph51%30.01 "HgN/A
8:20 PM77 °FPassing clouds.7 mph51%30.01 "HgN/A
7:50 PM79 °FPassing clouds.8 mph48%30.01 "HgN/A
7:20 PM79 °FSunny.12 mph48%30.01 "Hg10 mi
6:50 PM81 °FPassing clouds.8 mph45%30.01 "HgN/A
6:20 PM81 °FPassing clouds.12 mph48%30.01 "HgN/A
5:50 PM81 °FPassing clouds.13 mph48%30.01 "HgN/A
5:20 PM81 °FPassing clouds.9 mph45%30.04 "HgN/A
4:50 PM81 °FPassing clouds.9 mph48%30.04 "HgN/A
4:20 PM81 °FPassing clouds.12 mph48%30.04 "HgN/A
3:50 PM81 °FPassing clouds.12 mph45%30.04 "HgN/A
3:20 PM81 °FPassing clouds.10 mph51%30.04 "HgN/A
2:50 PM81 °FPassing clouds.9 mph51%30.07 "HgN/A
1:20 PM79 °FPassing clouds.9 mph54%30.07 "HgN/A
12:50 PM77 °FPassing clouds.8 mph57%30.07 "HgN/A
12:20 PM77 °FPassing clouds.9 mph57%30.09 "HgN/A
11:50 AM75 °FPassing clouds.8 mph61%30.09 "HgN/A
7:20 AM64 °FPassing clouds.5 mph83%30.09 "HgN/A
Weather by CustomWeather, © 2014

See weather overviewHow to use our weather pages